Tracking 30685 objects as of 18-Jun-2025
HD Live streaming from Space Station
objects crossing your sky now

STARLINK-30297

Track STARLINK-30297 now!
10-day predictions
STARLINK-30297 is classified as:


NORAD ID: 57682
Int'l Code: 2023-124V
Perigee: 481.6 km
Apogee: 483.1 km
Inclination: 53.2 °
Period: 94.1 minutes
Semi major axis: 6853 km
RCS: Unknown
Launch date: August 22, 2023
Source: United States (US)
Launch site: AIR FORCE WESTERN TEST RANGE (AFWTR)
Your satellite tracking list
Your tracking list is empty




NASA's NSSDC Master Catalog

Two Line Element Set (TLE):
1 57682U 23124V   25168.89088392 -.00001124  00000-0 -25823-4 0  9993
2 57682  53.1600 356.9898 0001069  92.0044 268.1079 15.30196732103024
Source of the keplerian elements: AFSPC